• In Belarus
  • List of Countries
  • For 7 days
  • Water Temperature
  • Satellite Maps
  • Weather Map
  • Weather Widgets
  • user-avatar
    Login

    Hourly Weather As-Savira

    Today, 21 May, Tuesday

    Time Temperature Precipitation Wind Pressure Humidity
    00:00 +27°C° 0 mm 6 mps 734 mmHg 37%
    01:00 +26°C° 0 mm 6 mps 734 mmHg 41%
    02:00 +24°C° 0 mm 7 mps 734 mmHg 42%
    03:00 +24°C° 0 mm 7 mps 734 mmHg 44%
    04:00 +23°C° 0 mm 8 mps 734 mmHg 46%
    05:00 +23°C° 0 mm 8 mps 734 mmHg 46%
    06:00 +23°C° 0 mm 7 mps 734 mmHg 45%
    07:00 +23°C° 0 mm 6 mps 735 mmHg 45%
    08:00 +24°C° 0 mm 7 mps 735 mmHg 43%
    09:00 +26°C° 0 mm 7 mps 735 mmHg 42%
    10:00 +26°C° 0 mm 7 mps 736 mmHg 40%
    11:00 +27°C° 0 mm 7 mps 735 mmHg 38%
    12:00 +28°C° 0 mm 7 mps 735 mmHg 36%
    13:00 +29°C° 0 mm 7 mps 735 mmHg 34%
    14:00 +29°C° 0 mm 7 mps 735 mmHg 33%
    15:00 +29°C° 0 mm 7 mps 735 mmHg 33%
    16:00 +29°C° 0 mm 6 mps 735 mmHg 32%
    17:00 +29°C° 0 mm 7 mps 735 mmHg 34%
    18:00 +28°C° 0 mm 7 mps 735 mmHg 36%
    19:00 +27°C° 0 mm 7 mps 735 mmHg 38%
    20:00 +27°C° 0 mm 7 mps 735 mmHg 37%
    21:00 +26°C° 0 mm 8 mps 735 mmHg 36%
    22:00 +24°C° 0 mm 8 mps 735 mmHg 35%
    23:00 +24°C° 0 mm 8 mps 735 mmHg 36%

    Tomorrow, 22 May, Wednesday

    Time Temperature Precipitation Wind Pressure Humidity
    00:00 +23°C° 0 mm 7 mps 735 mmHg 37%
    01:00 +23°C° 0 mm 6 mps 736 mmHg 38%
    02:00 +22°C° 0.5 mm 7 mps 735 mmHg 42%
    03:00 +21°C° 0.5 mm 8 mps 735 mmHg 46%
    04:00 +20°C° 0.5 mm 8 mps 735 mmHg 51%
    05:00 +20°C° 0.1 mm 8 mps 735 mmHg 48%
    06:00 +21°C° 0.1 mm 8 mps 735 mmHg 45%
    07:00 +22°C° 0.1 mm 7 mps 735 mmHg 42%
    08:00 +24°C° 0 mm 7 mps 735 mmHg 38%
    09:00 +26°C° 0 mm 7 mps 735 mmHg 33%
    10:00 +28°C° 0 mm 7 mps 736 mmHg 29%
    11:00 +29°C° 0 mm 6 mps 736 mmHg 27%
    12:00 +32°C° 0 mm 5 mps 736 mmHg 26%
    13:00 +33°C° 0 mm 4 mps 736 mmHg 24%
    14:00 +33°C° 0 mm 4 mps 735 mmHg 24%
    15:00 +34°C° 0 mm 4 mps 735 mmHg 23%
    16:00 +34°C° 0 mm 4 mps 734 mmHg 23%
    17:00 +33°C° 0 mm 5 mps 735 mmHg 25%
    18:00 +32°C° 0 mm 6 mps 735 mmHg 27%
    19:00 +30°C° 0 mm 7 mps 735 mmHg 29%
    20:00 +29°C° 0 mm 7 mps 735 mmHg 33%
    21:00 +27°C° 0 mm 7 mps 736 mmHg 36%
    22:00 +26°C° 0 mm 7 mps 736 mmHg 40%
    23:00 +24°C° 0 mm 6 mps 737 mmHg 40%

    Day after tomorrow, 23 May, Thursday

    Time Temperature Precipitation Wind Pressure Humidity
    00:00 +24°C° 0 mm 6 mps 737 mmHg 40%
    01:00 +23°C° 0 mm 5 mps 737 mmHg 40%
    02:00 +23°C° 0 mm 5 mps 736 mmHg 41%
    03:00 +23°C° 0 mm 5 mps 736 mmHg 42%
    04:00 +22°C° 0 mm 4 mps 736 mmHg 43%
    05:00 +22°C° 0 mm 4 mps 736 mmHg 42%
    06:00 +22°C° 0 mm 4 mps 737 mmHg 41%
    07:00 +22°C° 0 mm 4 mps 737 mmHg 40%
    08:00 +25°C° 0 mm 4 mps 737 mmHg 36%
    09:00 +26°C° 0 mm 3 mps 737 mmHg 31%
    10:00 +28°C° 0 mm 3 mps 738 mmHg 26%
    11:00 +29°C° 0 mm 3 mps 738 mmHg 25%
    12:00 +30°C° 0 mm 3 mps 737 mmHg 24%
    13:00 +31°C° 0 mm 3 mps 737 mmHg 22%
    14:00 +31°C° 0 mm 3 mps 737 mmHg 21%
    15:00 +33°C° 0 mm 3 mps 737 mmHg 20%
    16:00 +33°C° 0 mm 3 mps 736 mmHg 19%
    17:00 +33°C° 0 mm 4 mps 736 mmHg 20%
    18:00 +33°C° 0 mm 4 mps 736 mmHg 20%
    19:00 +32°C° 0 mm 4 mps 737 mmHg 21%
    20:00 +30°C° 0 mm 5 mps 737 mmHg 23%
    21:00 +29°C° 0 mm 6 mps 737 mmHg 25%
    22:00 +28°C° 0 mm 7 mps 738 mmHg 27%
    23:00 +28°C° 0 mm 6 mps 738 mmHg 28%

    24 May, Friday

    Time Temperature Precipitation Wind Pressure Humidity
    00:00 +27°C° 0 mm 5 mps 737 mmHg 29%
    01:00 +26°C° 0 mm 4 mps 737 mmHg 30%
    02:00 +26°C° 0 mm 4 mps 737 mmHg 31%
    03:00 +25°C° 0 mm 4 mps 736 mmHg 31%
    04:00 +25°C° 0 mm 4 mps 736 mmHg 32%
    05:00 +25°C° 0 mm 5 mps 736 mmHg 32%
    06:00 +24°C° 0 mm 6 mps 736 mmHg 32%
    07:00 +24°C° 0 mm 6 mps 736 mmHg 33%
    08:00 +27°C° 0 mm 6 mps 736 mmHg 30%
    09:00 +28°C° 0 mm 6 mps 736 mmHg 26%
    10:00 +30°C° 0 mm 7 mps 737 mmHg 23%
    11:00 +32°C° 0 mm 6 mps 736 mmHg 21%
    12:00 +33°C° 0 mm 6 mps 736 mmHg 19%
    13:00 +35°C° 0 mm 5 mps 736 mmHg 16%
    14:00 +35°C° 0 mm 5 mps 735 mmHg 15%
    15:00 +36°C° 0 mm 4 mps 734 mmHg 15%
    16:00 +36°C° 0 mm 4 mps 734 mmHg 14%
    17:00 +36°C° 0 mm 3 mps 734 mmHg 14%
    18:00 +35°C° 0 mm 3 mps 734 mmHg 14%
    19:00 +35°C° 0 mm 3 mps 734 mmHg 14%
    20:00 +34°C° 0 mm 3 mps 734 mmHg 15%
    21:00 +34°C° 0 mm 3 mps 734 mmHg 15%
    22:00 +33°C° 0 mm 3 mps 734 mmHg 16%
    23:00 +32°C° 0 mm 4 mps 733 mmHg 16%

    25 May, Saturday

    Time Temperature Precipitation Wind Pressure Humidity
    00:00 +30°C° 0 mm 4 mps 733 mmHg 17%
    01:00 +30°C° 0 mm 5 mps 733 mmHg 17%
    02:00 +29°C° 0 mm 6 mps 732 mmHg 18%
    03:00 +29°C° 0 mm 6 mps 732 mmHg 18%
    04:00 +28°C° 0 mm 7 mps 732 mmHg 19%
    05:00 +29°C° 0 mm 7 mps 732 mmHg 19%
    06:00 +29°C° 0 mm 8 mps 732 mmHg 19%
    07:00 +29°C° 0 mm 8 mps 731 mmHg 19%
    08:00 +32°C° 0 mm 9 mps 732 mmHg 18%
    09:00 +34°C° 0 mm 9 mps 732 mmHg 16%
    10:00 +36°C° 0 mm 10 mps 732 mmHg 15%
    11:00 +38°C° 0 mm 10 mps 731 mmHg 14%
    12:00 +39°C° 0 mm 10 mps 731 mmHg 13%
    13:00 +42°C° 0 mm 10 mps 731 mmHg 12%
    14:00 +42°C° 0 mm 9 mps 730 mmHg 11%
    15:00 +41°C° 0 mm 8 mps 729 mmHg 11%
    16:00 +43°C° 0 mm 7 mps 729 mmHg 11%
    17:00 +41°C° 0 mm 5 mps 728 mmHg 11%
    18:00 +40°C° 0 mm 4 mps 728 mmHg 12%
    19:00 +39°C° 0 mm 2 mps 728 mmHg 12%
    20:00 +37°C° 0 mm 4 mps 728 mmHg 15%
    21:00 +35°C° 0 mm 5 mps 728 mmHg 18%
    22:00 +34°C° 0 mm 7 mps 728 mmHg 21%
    23:00 +33°C° 0 mm 6 mps 728 mmHg 21%

    26 May, Sunday

    Time Temperature Precipitation Wind Pressure Humidity
    00:00 +33°C° 0 mm 4 mps 727 mmHg 20%
    01:00 +33°C° 0 mm 3 mps 727 mmHg 19%
    02:00 +33°C° 0 mm 4 mps 727 mmHg 18%
    03:00 +33°C° 0 mm 5 mps 727 mmHg 16%
    04:00 +33°C° 0 mm 6 mps 727 mmHg 14%
    05:00 +33°C° 0 mm 5 mps 727 mmHg 17%
    06:00 +32°C° 0 mm 4 mps 727 mmHg 20%
    07:00 +30°C° 0 mm 4 mps 728 mmHg 22%
    08:00 +32°C° 0 mm 4 mps 728 mmHg 23%
    09:00 +33°C° 0 mm 3 mps 728 mmHg 24%
    10:00 +33°C° 0 mm 3 mps 728 mmHg 25%
    11:00 +35°C° 0 mm 4 mps 728 mmHg 22%
    12:00 +36°C° 0 mm 5 mps 729 mmHg 20%
    13:00 +39°C° 0 mm 6 mps 729 mmHg 17%
    14:00 +39°C° 0 mm 5 mps 728 mmHg 17%
    15:00 +39°C° 0 mm 5 mps 728 mmHg 17%
    16:00 +38°C° 0 mm 4 mps 728 mmHg 17%
    17:00 +37°C° 0 mm 5 mps 728 mmHg 19%
    18:00 +36°C° 0 mm 5 mps 728 mmHg 21%
    19:00 +36°C° 0 mm 6 mps 728 mmHg 23%
    20:00 +35°C° 0 mm 6 mps 729 mmHg 24%
    21:00 +34°C° 0 mm 7 mps 729 mmHg 25%
    22:00 +33°C° 0 mm 7 mps 729 mmHg 27%
    23:00 +32°C° 0 mm 6 mps 729 mmHg 30%
    Show more